Simultaneous Nadir Overpasses (SNOs) Predictions

Prediction of SNOs between GOES-16 and TERRA Satellite Orbit:

Table of predicted SNOs for the next 14.0 days since TLE Epoch: 1/10/2025
Index Date Time (GOES-16) GOES-16 Lat,Lon TERRA Lat,Lon Distance(km) Time Diff (sec)
1 01/12/2025 14:34:00 -0.02, -75.20 0.06, -75.45 29.46 80
2 01/14/2025 14:18:08 -0.01, -75.21 -0.87, -70.99 479.23 80
3 01/15/2025 02:37:55 0.01, -75.18 -0.13, -75.80 71.12 80
4 01/17/2025 02:16:43 0.00, -75.19 0.84, -71.34 438.82 80
5 01/17/2025 14:36:19 -0.00, -75.23 0.20, -76.10 98.79 80
6 01/19/2025 14:20:26 0.00, -75.26 -0.73, -71.63 412.42 80
7 01/20/2025 02:40:13 -0.00, -75.24 -0.24, -76.44 137.08 80
8 01/22/2025 02:18:59 0.00, -75.27 0.66, -71.96 374.69 80
9 01/22/2025 14:38:35 -0.00, -75.31 0.31, -76.74 162.82 80
10 01/24/2025 14:22:42 -0.00, -75.35 -0.62, -72.26 349.62 80
